Chicago Midway, IL

1:24 PM CDT on June 25, 2017 (GMT -0500)
Chicago-Midway

Weather History for KMDW - October, 2013

Change the Weather History Date:

Sunday, October 6, 2013

  Actual Average Record
Temperature  
Mean Temperature 58 °F 58 °F  
Max Temperature 67 °F 67 °F 94 °F (1963)
Min Temperature 48 °F 49 °F 28 °F (1952)
Degree Days  
Heating Degree Days 7 8  
Month to date heating degree days 7 44  
Since 1 July heating degree days 61 126  
Cooling Degree Days 0 1  
Month to date cooling degree days 32 6  
Year to date cooling degree days 1089 1035  
Growing Degree Days 7 (Base 50)    
Moisture  
Dew Point 46 °F    
Average Humidity 69    
Maximum Humidity 90    
Minimum Humidity 36    
Precipitation  
Precipitation 0.06 in 0.10 in 1.57 in (1955)
Month to date precipitation 1.54 0.60  
Year to date precipitation 27.57 30.46  
Sea Level Pressure  
Sea Level Pressure 29.75 in    
Wind  
Wind Speed 11 mph (WSW)    
Max Wind Speed 22 mph    
Max Gust Speed 28 mph    
Visibility 9 miles    
Events Rain    
T = Trace of Precipitation, MM = Missing Value Source: NWS Daily Summary

Daily Weather History Graph

Daily Weather History Graph

Search for Another Location

Airport or City:

Trip Planner

Search our weather history database for the weather conditions in past years. The results will help you decide how hot, cold, wet, or windy it might be!

Date:

Astronomy

Oct. 06, 2013 Rise Set
Actual Time 6:53 AM CDT 6:23 PM CDT
Civil Twilight 6:25 AM CDT 6:51 PM CDT
Nautical Twilight 5:53 AM CDT 7:23 PM CDT
Astronomical Twilight 5:21 AM CDT 7:56 PM CDT
Moon 8:39 AM CDT (10/6) 7:20 PM CDT (10/6)
Length of Visible Light 12h 25m
Length of Day
11h 30m
Waxing Crescent, 3% of the Moon is Illuminated
Oct 6
Waxing Crescent
Oct 11
First Quarter
Oct 18
Full
Oct 26
Last Quarter
Nov 3
New

Hourly Weather History & Observations

Time (CDT) Temp. Dew Point Humidity Pressure Visibility Wind Dir Wind Speed Gust Speed Precip Events Conditions
12:40 AM 66.2 °F 62.6 °F 88% 29.77 in 7.0 mi West 12.7 mph - 0.00 in Rain Light Rain
12:46 AM 66.2 °F 62.6 °F 88% 29.77 in 7.0 mi West 13.8 mph - 0.01 in Rain Light Rain
12:51 AM 66.9 °F 62.1 °F 84% 29.74 in 9.0 mi West 12.7 mph - 0.01 in   Overcast
1:51 AM 62.1 °F 57.0 °F 84% 29.75 in 9.0 mi West 16.1 mph 23.0 mph N/A   Overcast
2:09 AM 60.8 °F 53.6 °F 77% 29.77 in 9.0 mi West 10.4 mph - N/A   Overcast
2:51 AM 60.1 °F 54.0 °F 80% 29.76 in 10.0 mi West 13.8 mph - N/A   Overcast
3:24 AM 57.2 °F 51.8 °F 82% 29.78 in 10.0 mi West 10.4 mph - 0.00 in Rain Light Rain
3:51 AM 55.9 °F 52.0 °F 87% 29.76 in 4.0 mi WSW 6.9 mph - 0.00 in   Light Drizzle
4:51 AM 55.0 °F 51.1 °F 86% 29.78 in 10.0 mi West 6.9 mph - 0.04 in Rain Light Rain
5:51 AM 55.0 °F 51.1 °F 86% 29.78 in 6.0 mi SW 8.1 mph - 0.02 in   Light Drizzle
6:51 AM 54.0 °F 50.0 °F 86% 29.76 in 10.0 mi SW 6.9 mph - 0.00 in   Overcast
7:51 AM 54.0 °F 51.1 °F 90% 29.75 in 10.0 mi SW 8.1 mph - N/A   Mostly Cloudy
8:51 AM 54.0 °F 44.1 °F 69% 29.76 in 10.0 mi WSW 9.2 mph - N/A   Mostly Cloudy
9:51 AM 55.0 °F 46.9 °F 74% 29.75 in 10.0 mi WSW 9.2 mph - N/A   Mostly Cloudy
10:51 AM 57.0 °F 43.0 °F 59% 29.75 in 10.0 mi SW 10.4 mph - N/A   Scattered Clouds
11:51 AM 60.1 °F 42.1 °F 51% 29.74 in 10.0 mi SW 10.4 mph - N/A   Scattered Clouds
12:51 PM 61.0 °F 41.0 °F 48% 29.71 in 10.0 mi SW 11.5 mph - N/A   Scattered Clouds
1:51 PM 61.0 °F 43.0 °F 52% 29.69 in 10.0 mi WSW 13.8 mph - N/A   Mostly Cloudy
2:51 PM 60.1 °F 39.9 °F 47% 29.70 in 10.0 mi WSW 13.8 mph - N/A   Mostly Cloudy
3:51 PM 59.0 °F 39.0 °F 48% 29.69 in 10.0 mi SW 15.0 mph - N/A   Mostly Cloudy
4:51 PM 57.0 °F 37.9 °F 49% 29.72 in 10.0 mi WSW 13.8 mph - N/A   Overcast
5:51 PM 53.1 °F 39.0 °F 59% 29.75 in 10.0 mi West 16.1 mph 20.7 mph N/A   Overcast
6:51 PM 51.1 °F 37.9 °F 61% 29.77 in 10.0 mi West 13.8 mph - N/A   Mostly Cloudy
7:51 PM 51.1 °F 37.9 °F 61% 29.78 in 10.0 mi WSW 9.2 mph - N/A   Mostly Cloudy
8:51 PM 50.0 °F 37.0 °F 61% 29.78 in 10.0 mi West 11.5 mph - N/A   Scattered Clouds
9:51 PM 48.9 °F 37.0 °F 64% 29.78 in 10.0 mi West 5.8 mph - N/A   Partly Cloudy
10:51 PM 48.0 °F 37.9 °F 68% 29.79 in 10.0 mi WSW 5.8 mph - N/A   Mostly Cloudy
11:51 PM 48.0 °F 37.9 °F 68% 29.78 in 10.0 mi West 9.2 mph - N/A   Mostly Cloudy